Regional Weather Roundup
Issued by NWS Charleston, SC

Current Version | Previous Version | Text Only | Print | Product List | Glossary Off
Versions: 1 2 3 4 5 6 7 8 9 10 11 12 13 14 15 16 17 18 19 20 21 22 23 24 25 26 27 28 29 30 31 32 33 34 35 36 37 38 39 40 41 42 43 44 45 46 47 48 49 50

000
ASUS42 KCHS 260312
RWRCHS

REGIONAL WEATHER ROUNDUP
NATIONAL WEATHER SERVICE CHARLESTON SC
1100 PM EDT SUN JUN 25 2017

NOTE: "FAIR" INDICATES FEW OR NO CLOUDS BELOW 12,000 FEET WITH NO
SIGNIFICANT WEATHER AND/OR OBSTRUCTIONS TO VISIBILITY.

NOT ALL STATIONS ARE QUALITY CONTROLLED. USE DATA WITH CAUTION...
ESPECIALLY DEWPOINT OBSERVATIONS.

SCZ027-030-031-034>040-042>050-260400-
...SOUTHEAST SOUTH CAROLINA...

CITY           SKY/WX    TMP DP  RH WIND       PRES   REMARKS
N CHARLESTON   CLOUDY    75  73  93 CALM      30.07R
WATERFRONT PRK   N/A     78  75  90 CALM      30.04S
JOHNS ISLAND   CLOUDY    77  77 100 CALM      30.07R
PINOPOLIS        N/A     75  75 100 W6        30.00S
MONCKS CORNER  MOCLDY    73  72  94 CALM      30.08S
SUMMERVILLE    FAIR      73  72  94 CALM      30.08F
BEAUFORT MCAS  CLOUDY    76  76 100 CALM      30.07R
BEAUFORT ARPT  FAIR      77  75  94 CALM      30.06R
HILTON HEAD IS CLOUDY    77  77 100 CALM      30.08R
WALTERBORO     CLOUDY    73  73 100 CALM      30.08S
ALLENDALE      MOCLDY    75  73  94 CALM      30.07R

...SOUTHERN MIDLANDS AND PEE DEE...

CITY           SKY/WX    TMP DP  RH WIND       PRES   REMARKS
GEORGETOWN     FAIR      73  72  94 CALM      30.08F
KINGSTREE      MOCLDY    73  72  94 CALM      30.08S
ORANGEBURG     CLOUDY    76  74  93 W3        30.08F
BARNWELL       CLOUDY    75  75 100 CALM      30.09S
AIKEN          FAIR      75  66  73 N7        30.13S
MANNING        FAIR      73  73 100 N9        30.08S
COLUMBIA       PTCLDY    79  65  62 CALM      30.09R
SUMTER         MOCLDY    77  75  92 E3        30.06R
FLORENCE       CLOUDY    78  69  73 NW5       30.08S
MYRTLE BEACH   NOT AVBL
N MYRTLE BEACH CLOUDY    76  75  97 SW3       30.07R

$$

GAZ063-065-086>088-099>101-113>116-118-119-134>141-150-260400-
...SOUTHEAST GEORGIA...

CITY           SKY/WX    TMP DP  RH WIND       PRES   REMARKS
SAVANNAH ARPT  CLOUDY    76  74  93 CALM      30.07R
HUNTER AAF     MOCLDY    76  75  97 CALM      30.04R
FORT STEWART   DRIZZLE   75  73  94 W3        30.05R
STATESBORO     MOCLDY    77  77 100 CALM      30.08R
SYLVANIA       CLOUDY    76  76 100 CALM      30.09R
CLAXTON        FAIR      74  73  98 CALM      30.07S

...CSRA...CENTRAL AND FAR SOUTHEAST GEORGIA...

CITY           SKY/WX    TMP DP  RH WIND       PRES   REMARKS
THOMSON        PTCLDY    76  72  87 NE3       30.15S
AUGUSTA-BUSH   CLOUDY    80  74  81 CALM      30.08R
AUGUSTA-DANIEL CLOUDY    80  67  64 N10       30.10R
SWAINSBORO     FAIR      77  77 100 CALM      30.09S
VIDALIA        CLOUDY    77  73  88 SW5       30.09S
EASTMAN        FAIR      75  72  89 CALM      30.12S
HAZLEHURST       N/A     75  75 100 CALM      30.09R
ALMA           PTCLDY    75  73  93 W3        30.09R
WAYCROSS       CLOUDY    78  78 100 W3        30.08S
JESUP          FAIR      73  72  94 CALM      30.07F
BAXLEY         FAIR      75  75 100 CALM      30.08S
BRUNSWICK      CLOUDY    75  73  94 CALM      30.08S
SAINT SIMONS   CLOUDY    77  74  90 CALM      30.08R

$$

SCZ027-028-034-036>038-045-046-048>050-GAZ119-141-260400-
...LAKE AND SUPPLEMENTAL COASTAL OBSERVATIONS...

STATION/POSITION TIME  TEMP    WIND        PRES    WAVE   SWELL
                       AIR SEA DIR/SP/G            HT/PER HT/PER/DIR
                 (UTC) (F)     (DEG/KT/KT) (MB)    (FT/S) (FT/S/D)
WINYAH BAY       NOT AVBL
LAKE MURRAY      0220   77      20/  2/  3 1018.3
ACE BASIN NERRS  NOT AVBL
FORT PULASKI     0242   78 85  270/  4/  5 1018.5R
SAPELO ISLAND    0200   75        CALM     1018.0

$$

ANZ835-935-AMZ111-154-330-350-352-354-370-450-454-472-260400-
...C-MAN AND BUOY OBSERVATIONS...

STATION/POSITION TIME  TEMP    WIND        PRES    WAVE   SWELL
                       AIR SEA DIR/SP/G            HT/PER HT/PER/DIR
                 (UTC) (F)     (DEG/KT/KT) (MB)    (FT/S) (FT/S/D)
BUOY 41004       0250   80 81  160/  6/  6 1018.0R   3/ 5   2/160/ 5
BUOY 41008       0150   78 82  290/  4/  6 1017.3    2/ 5   2/150/ 5
FOLLY BEACH CMAN 0200   79      70/  3/  4 1018.5R
CAPERS NEARSHORE 0208   84 83  110/  2/  4 1018.0R
FRIPP NEARSHORE  0208   79 84  190/  6/ 10 1016.7F


STATION/POSITION TIME  TEMP    WIND        PRES    WAVE   SWELL
                       AIR SEA DIR/SP/G            HT/PER HT/PER/DIR
                 (UTC) (F)     (DEG/KT/KT) (MB)    (FT/S) (FT/S/D)
5E ST. MARYS GA  0230      80                N/A     3/ 4
FRYING PAN BUOY  0250   78 81  220/  2/  4 1018.0S   3/ 6   3/170/ 6
BUOY 41025       0250   79 80  240/ 12/ 14 1017.4R   3/ 8   2/120/ 8
CAPE LOOKOUT NC  0200   74     230/  9/ 12 1017.5R
BUOY 41002       0250   81 80  210/ 10/ 12 1019.9F   4/ 6   3/250/ 6
BUOY 41010       0250   83 84  150/ 10/ 14 1019.0F   3/ 8   3/100/ 8
ST AUGUSTINE FL  0300   74 77   90/  4/  5 1019.5F


$$



USA.gov is the U.S. government's official web portal to all federal, state and local government web resources and services.